星链-3934 (STARLINK-3934 )

导读 | 豆包AI

STARLINK-3934是美国太空探索技术公司(SpaceX)星链互联网星座中的卫星,于2022年5月18日发射。它运行在近地轨道,属于星链一代后期批次,配备氪离子推进系统,支持星链的全球卫星互联网服务,旨在为用户提供高速低延迟网络连接,助力扩大星座覆盖范围,目前仍在轨正常运行。

Basic Information
目录编号:
52675
目录名称:
STARLINK-3934
国际标识:
2022-053V
轨道中心:
EARTH
卫星名称:
星链-3934
卫星全名:
星链-3934 (STARLINK-3934 )
卫星状态:
在轨 (已飞行1444 天)
发射日期:
2022-05-18 UTC
国别 :
美国 (US)
星等 :
--
Orbit Information
数据来源 国际轨道数据 AOE轨道数据
星历时间 2026-04-30T21:34:18+0800
10小时前
查看轨道信息
2026-04-28T09:00:00+0800
2天前
查看轨道信息
半长轴 6917.884km 6917.894km
偏心率 0.0002028 0.0002021
轨道倾角 53.217° 53.218°
近地点辐角 115.274° 97.260°
升交点赤经 271.236° 282.567°
平近点角 244.847° 226.460°
近地点 538.344km 538.358km
远地点 541.15km 541.156km
周期 95.438分钟 95.438分钟
每日圈数 15.088391 15.088357
Detailed Information
固有亮度:
5
最大亮度:
2.5
卫星平台:
Starlink v1.5
覆盖范围:
全球
运营商:
太空探索技术公司
运营商所在国:
美国
制造商(研发单位):
太空探索技术公司
制造商所在国:
美国
使用方式:
暂无
Satellite Introduction
星链(Starlink)计划是由太空探索技术公司(SpaceX)提出的一个巨型低轨卫星互联网星座项目,计划在2019年至2024年间在太空搭建由约1.2万颗卫星组成的“星链”网络,其中1584颗将部署在地球上空550千米处的近地轨道,并从2020年开始工作。该卫星仍在工作。
2D Orbit Map
3D Orbit Map
Orbit Altitude Analysis Chart
Orbit Inclination Analysis Chart
Orbit Comprehensive Analysis Chart
View Comprehensive Chart